Buffalo, NY

1:53 AM EDT on October 23, 2019 (GMT -0400)
Buffalo Niagara International

Weather History for KBUF - August, 2019

Change the Weather History Date:

Thursday, August 29, 2019

  Actual Average Record
Temperature  
Mean Temperature 67 °F 68 °F  
Max Temperature 74 °F 77 °F 90 °F (1951)
Min Temperature 60 °F 59 °F 38 °F (1982)
Degree Days  
Heating Degree Days 0 1  
Month to date heating degree days 2 14  
Since 1 June heating degree days 64 87  
Since 1 July heating degree days 2 23  
Cooling Degree Days 2 4  
Month to date cooling degree days 174 153  
Year to date cooling degree days 542 479  
Since 1 June cooling degree days 534 453  
Growing Degree Days 16 (Base 50)    
Moisture  
Dew Point 54 °F    
Average Humidity 61    
Maximum Humidity 78    
Minimum Humidity 44    
Precipitation  
Precipitation T in 0.10 in 3.38 in (1893)
Month to date precipitation 3.62 3.05  
Year to date precipitation 28.37 24.95  
Snow  
Snow 0.00 in 0.00 in 0.00 in ()
Month to date snowfall 0.0 0.0  
Since 1 June snowfall 0.0 0.0  
Since 1 July snowfall 0.0 0.0  
Snow Depth 0.00 in    
Sea Level Pressure  
Sea Level Pressure 29.92 in    
Wind  
Wind Speed 13 mph (WSW)    
Max Wind Speed 24 mph    
Max Gust Speed 30 mph    
Visibility 10 miles    
Events      
T = Trace of Precipitation, MM = Missing Value Source: NWS Daily Summary

Daily Weather History Graph

Daily Weather History Graph

Search for Another Location

Airport or City:

Astronomy

Aug. 29, 2019 Rise Set
Actual Time 6:35 AM EDT 7:55 PM EDT
Civil Twilight 6:06 AM EDT 8:24 PM EDT
Nautical Twilight 5:31 AM EDT 8:59 PM EDT
Astronomical Twilight 4:53 AM EDT 9:36 PM EDT
Moon 5:15 AM EDT (8/29) 7:52 PM EDT (8/29)
Length of Visible Light 14h 17m
Length of Day
13h 19m
Waning Crescent, 1% of the Moon is Illuminated
Aug 29
Waning Crescent
Aug 30
New
Sep 5
First Quarter
Sep 14
Full
Sep 21
Last Quarter

Hourly Weather History & Observations

Time (EDT) Temp. Dew Point Humidity Pressure Visibility Wind Dir Wind Speed Gust Speed Precip Events Conditions
12:54 AM 66.0 °F 57.0 °F 73% 29.88 in 10.0 mi NW 5.8 mph - 0.00 in   Mostly Cloudy
1:54 AM 66.0 °F 55.9 °F 70% 29.89 in 10.0 mi West 9.2 mph - 0.00 in   Overcast
2:54 AM 64.0 °F 54.0 °F 70% 29.90 in 10.0 mi WSW 6.9 mph - N/A   Scattered Clouds
3:54 AM 62.1 °F 53.1 °F 72% 29.91 in 10.0 mi West 9.2 mph - N/A   Scattered Clouds
4:54 AM 61.0 °F 52.0 °F 72% 29.92 in 10.0 mi West 8.1 mph - N/A   Partly Cloudy
5:54 AM 61.0 °F 51.1 °F 70% 29.92 in 10.0 mi West 6.9 mph - N/A   Mostly Cloudy
6:54 AM 60.1 °F 51.1 °F 72% 29.94 in 10.0 mi West 6.9 mph - N/A   Partly Cloudy
7:54 AM 63.0 °F 52.0 °F 67% 29.95 in 10.0 mi West 8.1 mph - N/A   Partly Cloudy
8:54 AM 66.0 °F 52.0 °F 60% 29.96 in 10.0 mi WSW 10.4 mph - N/A   Partly Cloudy
9:54 AM 66.9 °F 52.0 °F 59% 29.97 in 10.0 mi West 15.0 mph 21.9 mph N/A   Partly Cloudy
10:54 AM 70.0 °F 52.0 °F 53% 29.97 in 10.0 mi West 11.5 mph - N/A   Partly Cloudy
11:54 AM 71.1 °F 50.0 °F 47% 29.97 in 10.0 mi West 11.5 mph - N/A   Scattered Clouds
12:54 PM 73.0 °F 50.0 °F 44% 29.96 in 10.0 mi West 13.8 mph 21.9 mph N/A   Partly Cloudy
1:54 PM 73.0 °F 50.0 °F 44% 29.94 in 10.0 mi SW 17.3 mph 24.2 mph N/A   Partly Cloudy
2:54 PM 72.0 °F 52.0 °F 49% 29.94 in 10.0 mi SW 20.7 mph 27.6 mph N/A   Partly Cloudy
3:54 PM 72.0 °F 55.0 °F 55% 29.94 in 10.0 mi SW 18.4 mph 26.5 mph N/A   Partly Cloudy
4:54 PM 73.0 °F 55.9 °F 55% 29.93 in 10.0 mi WSW 19.6 mph 29.9 mph N/A   Partly Cloudy
5:54 PM 73.0 °F 54.0 °F 51% 29.92 in 10.0 mi SW 18.4 mph - N/A   Partly Cloudy
6:54 PM 72.0 °F 53.1 °F 51% 29.91 in 10.0 mi WSW 17.3 mph 27.6 mph N/A   Partly Cloudy
7:54 PM 70.0 °F 54.0 °F 57% 29.91 in 10.0 mi SW 13.8 mph - N/A   Partly Cloudy
8:54 PM 70.0 °F 55.9 °F 61% 29.91 in 10.0 mi SW 11.5 mph - N/A   Partly Cloudy
9:54 PM 66.0 °F 57.0 °F 73% 29.90 in 10.0 mi SSW 10.4 mph - N/A   Partly Cloudy
10:54 PM 64.9 °F 57.0 °F 75% 29.89 in 10.0 mi SSW 10.4 mph - N/A   Partly Cloudy
11:54 PM 64.9 °F 54.0 °F 68% 29.88 in 10.0 mi SSW 12.7 mph - N/A   Partly Cloudy